Location: Sungai Laei
(2.6000°N, 113.7167°E)
Time: 13:25:32
(UTC+00:00)

Cosmos 1833 Rocket - Pass Details

Date: 22 May 2022
Orbit: 832 x 840 km, 71.0° (Epoch: 06 July)

Event Time Altitude Azimuth Distance (km) Brightness Sun altitude
Rises 20:59:08 0° 181° (S) 3,379 5.6 -18.3°
Reaches altitude 10° 21:01:44 10° 173° (S) 2,442 4.9 -17.7°
Maximum altitude 21:06:56 40° 105° (ESE) 1,213 4.0 -16.5°
Drops below altitude 10° 21:12:06 10° 37° (NE) 2,431 6.0 -15.3°
Sets 21:14:39 0° 30° (NNE) 3,362 6.7 -14.7°
